Home > Weather > Halberstadt > Past weeks

Flag for Germany Weather for the Past 2 Weeks in Halberstadt, Saxony-Anhalt, Germany

Now
50 °F

Clear.


Feels Like: 50 °F
Forecast: 44 / 59 °F
Wind: 2 mph from East

Location: Braunschweig Wolfsburg

Current Time: May 3, 2016 at 12:30:20 AM

Latest Report: May 2, 2016 at 10:50 PM


Visibility: 10 mi

Pressure: 30.09 "Hg

Humidity: 71%

Dew Point: 41 °F

Location of HalberstadtLocation

Historic Weather in Halberstadt — Graph

°F

Halberstadt Temperature Yesterday

Maximum temperature yesterday: 68 °F (at 4:20 PM)
Minimum temperature yesterday: 39 °F (at 5:50 AM)
Average temperature yesterday: 59 °F

High & Low Weather Summary for the Past Weeks

 TemperatureHumidityPressure
High68 °F (May 2, 4:20 PM)100% (Apr 22, 7:50 AM)30.42 "Hg (Apr 22, 7:50 AM)
Low32 °F (Apr 21, 6:50 AM)29% (Apr 21, 4:20 PM)29.45 "Hg (Apr 26, 6:50 AM)
Average48 °F61%29.98 "Hg
* Reported Apr 18 6:50 AM — May 2 10:50 PM, Halberstadt, Weather by CustomWeather, © 2016

Note: Actual official high and low records may vary slightly from our data, if they occured in-between our weather recording intervals... More about our weather records

Advertising

Halberstadt Weather History for the Previous 24 Hours

Scroll right to see more
 ConditionsComfort  
Time TempWeatherWind HumidityBarometerVisibility
10:50 PM
Mon, May 2
50 °FClear.2 mph71%30.09 "Hg10 mi
9:50 PM54 °FClear.3 mph63%30.09 "Hg10 mi
9:20 PM57 °FPassing clouds.5 mph55%30.09 "HgN/A
8:50 PM59 °FSunny.5 mph51%30.09 "Hg10 mi
8:20 PM59 °FSunny.6 mph51%30.09 "Hg10 mi
7:50 PM63 °FSunny.8 mph45%30.09 "Hg10 mi
7:20 PM64 °FSunny.10 mph40%30.12 "Hg10 mi
6:50 PM64 °FPassing clouds.12 mph37%30.12 "HgN/A
6:20 PM66 °FSunny.13 mph37%30.12 "Hg10 mi
5:50 PM68 °FPassing clouds.10 mph35%30.12 "HgN/A
5:20 PM66 °FPassing clouds.9 mph35%30.15 "HgN/A
4:50 PM66 °FPassing clouds.9 mph35%30.15 "HgN/A
4:20 PM68 °FPassing clouds.8 mph33%30.15 "HgN/A
3:50 PM66 °FPassing clouds.9 mph37%30.18 "HgN/A
3:20 PM66 °FPassing clouds.7 mph37%30.18 "HgN/A
2:20 PM66 °FPassing clouds.6 mph37%30.21 "HgN/A
1:50 PM66 °FSunny.7 mph37%30.21 "Hg10 mi
1:20 PM64 °FSunny.6 mph43%30.24 "Hg10 mi
12:50 PM64 °FSunny.8 mph40%30.24 "Hg10 mi
12:20 PM64 °FSunny.3 mph46%30.24 "Hg10 mi
11:50 AM61 °FSunny.3 mph48%30.27 "Hg10 mi
11:20 AM59 °FSunny.1 mph55%30.27 "Hg10 mi
10:50 AM59 °FSunny.1 mph59%30.27 "Hg10 mi
10:20 AM57 °FSunny.1 mph59%30.27 "Hg10 mi
9:50 AM55 °FSunny.No wind63%30.27 "Hg10 mi
8:50 AM52 °FClear.No wind82%30.27 "Hg6 mi
8:20 AM48 °FClear.No wind87%30.27 "Hg4 mi
6:50 AM39 °FFog.1 mph93%30.27 "Hg2 mi
6:20 AM39 °FFog.No wind100%30.27 "Hg2 mi
5:50 AM39 °FFog.No wind100%30.30 "Hg2 mi
Weather by CustomWeather, © 2016

See weather overviewHow to use our weather pages